Preview of NWS' New Version of Forecast
This preview is not operational and should not be used for support decisions.

Regional Weather Roundup (RWR)

Issued by National Weather Service (NWS)

                            
000
ASUS43 KLSX 201357
RWRMO 

WEATHER SUMMARY FOR MISSOURI
NATIONAL WEATHER SERVICE SPRINGFIELD MO
900 AM CDT SAT APR 20 2019

NOTE: "FAIR" INDICATES FEW OR NO CLOUDS BELOW 12,000 FEET WITH NO
       SIGNIFICANT WEATHER AND/OR OBSTRUCTIONS TO VISIBILITY.
       CURRENT SKY AND/OR WEATHER CONDITIONS ARE NOT AVAILABLE FOR
       CHILLICOTHE AND FARMINGTON.

MOZ001>031-035>038-043-044-053-054-201500-
...NORTHERN AND WESTERN MISSOURI...
  
CITY           SKY/WX    TMP DP  RH WIND       PRES   REMARKS
KANSAS CTY INT SUNNY     55  38  52 SW6       29.98R                  
LEE'S SUMMIT   SUNNY     53  37  54 SW5       29.99S                  
ST JOSEPH      SUNNY     50  39  66 S6        29.98S                  
CHILLICOTHE      N/A     51  40  65 CALM      29.98S                  
     
$$
MOZ066>068-077>081-088>096-101>105-201500-
...SOUTHWEST MISSOURI...
  
CITY           SKY/WX    TMP DP  RH WIND       PRES   REMARKS
SPRINGFIELD    SUNNY     53  36  52 NW7       29.99R                  
JOPLIN         SUNNY     51  39  63 SW5       30.03R                  
BRANSON        SUNNY     50  32  50 W6        30.01R                  
               
$$
MOZ032>034-039>042-045>050-055>058-069>072-201500-
...CENTRAL MISSOURI...  
  
CITY           SKY/WX    TMP DP  RH WIND       PRES   REMARKS
COLUMBIA       NOT AVBL                                               
JEFFERSON CITY SUNNY     50  36  58 W3        29.97R                  
ROLLA          SUNNY     50  31  48 N6        29.96R                  
SEDALIA        SUNNY     51  39  63 W7        29.99R                  
WARRENSBURG    SUNNY     50  41  71 CALM      30.00R                  
               
$$
MOZ051-052-059>065-201500-
...EAST CENTRAL MISSOURI...
  
CITY           SKY/WX    TMP DP  RH WIND       PRES   REMARKS
ST LOUIS INTL  SUNNY     50  27  40 N14G23    29.92R                  
                   
$$
MOZ072>076-082>087-097>100-106>115-201500-
...SOUTH CENTRAL AND SOUTHEAST MISSOURI...
  
CITY           SKY/WX    TMP DP  RH WIND       PRES   REMARKS
CAPE GIRARDEAU FAIR      51  30  44 N20G28    29.84R                  
POPLAR BLUFF   FAIR      53  29  39 NW8       29.88R                  
WEST PLAINS    SUNNY     54  33  45 NW9       29.96R                  
                                       
$$